Regional Weather Roundup
Issued by NWS Sioux Falls, SD

Home | Current Version | Previous Version | Text Only | Print | Product List | Glossary On
Versions: 1 2 3 4 5 6 7 8 9 10 11 12 13 14 15 16 17 18 19 20 21 22 23 24 25 26 27 28 29 30 31 32 33 34 35 36 37 38 39 40 41 42 43 44 45 46 47 48 49 50
000
ASUS43 KFSD 010710
RWRFSD

WEATHER ROUNDUP FOR SE SOUTH DAKOTA/SW MINNESOTA/NW IOWA
NATIONAL WEATHER SERVICE SIOUX FALLS SD
100 AM CST SUN FEB 01 2015

NOTE: "FAIR" INDICATES FEW OR NO CLOUDS BELOW 12,000 FEET WITH NO
SIGNIFICANT WEATHER AND OR OBSTRUCTIONS TO VISIBILITY.


SDZ038>040-050-052>070-010800-
SOUTHEAST SOUTH DAKOTA

CITY           SKY/WX    TMP DP  RH WIND       PRES   REMARKS
CHAMBERLAIN    LGT SNOW   8   4  84 N17G25    30.18S WCI -11
HURON          LGT SNOW   8   2  76 N21G31    30.23S WCI -12
MADISON        LGT SNOW  14  14 100 NE23G32   30.08S WCI  -5
MITCHELL       LGT SNOW  14  11  87 N25       30.16S VSB 1   WCI  -5
SIOUX FALLS    LGT SNOW  21  18  88 NE22G31   30.05S VSB 1   WCI   5
WINNER         LGT SNOW  10   6  84 N18       30.17R VSB 3/4 WCI  -8
YANKTON        CLOUDY    25  21  86 N18G24    30.03R VSB 1   WCI  11
$$

MNZ071-072-080-081-089-090-097-098-010800-
SOUTHWEST MINNESOTA

CITY           SKY/WX    TMP DP  RH WIND       PRES   REMARKS
FAIRMONT       CLOUDY    23  19  86 NE20      30.03F WCI   8
JACKSON        LGT SNOW  23  21  93 NE24      30.03F WCI   7
LUVERNE        LGT SNOW  25  21  86 NE22G32   30.04S WCI  10
MARSHALL       CLOUDY    21   9  58 NE16G25   30.16S WCI   7
MONTEVIDEO     CLOUDY    18  10  73 E17G25    30.23R HAZE    WCI   2
PIPESTONE      LGT SNOW  19  16  86 NE15G21   30.06S WCI   5
REDWOOD FALLS  CLOUDY    22   9  57 NE15G24   30.16R WCI   9
TRACY          CLOUDY    23  14  68 NE18G24   30.11F WCI   9
WINDOM         LGT SNOW  21  19  93 NE16G24   30.06S WCI   7
WORTHINGTON    CLOUDY    36  18  48 NE24      30.04S VSB 1
$$

IAZ001>003-012>014-020>022-031-032-NEZ013-014-SDZ071-010800-
NORTHWEST IOWA

CITY           SKY/WX    TMP DP  RH WIND       PRES   REMARKS
CHEROKEE       LGT SNOW  26  26  98 NE15G21   29.95S WCI  14
DENISON        LGT SNOW  32  32 100 NE8       29.86F VSB 1   WCI  25
ESTHERVILLE    LGT SNOW  23  21  92 NE22      30.00F VSB 1   WCI   8
LE MARS        MIX PCPN  27  25  93 NE17G29   29.96S WCI  14
ORANGE CITY    LGT SNOW  25  21  86 NE15G24   29.96F WCI  12
SHELDON        MIX PCPN  23  23 100 NE22G32   29.97F WCI   8
SIOUX CITY     LGT SNOW  29  26  89 NE18G28   29.93S VSB 1   WCI  16
SPENCER        LGT SNOW  25  21  85 NE26      29.98F VSB 1   WCI   9
STORM LAKE     LGT SNOW  27  25  93 NE24      29.92F VSB 3/4 WCI  12
$$

ABBREVIATIONS USED IN REMARKS
   TC - TEMPERATURE IN CELSIUS
  WCI - WIND CHILL INDEX
   HX - HEAT INDEX
  VSB - VISIBILITY




USA.gov is the U.S. government's official web portal to all federal, state and local government web resources and services.